Preview of NWS' New Version of Forecast
This preview is not operational and should not be used for support decisions.

Regional Weather Roundup (RWR)

Issued by Philadelphia/Mt Holly (PHI)

                            
000
ASUS41 KPHI 180612
RWRPHI

REGIONAL WEATHER ROUNDUP
NATIONAL WEATHER SERVICE MOUNT HOLLY NJ
200 AM EDT WED SEP 18 2019

NOTE:  "FAIR" INDICATES FEW OR NO CLOUDS BELOW 12,000 FEET WITH NO
SIGNIFICANT WEATHER AND/OR OBSTRUCTIONS TO VISIBILITY.

 * = STATION DOES NOT REPORT PRECIPITATION (E.G. RAIN, SNOW, ETC.) 
        OR FOG.

NJZ015>026-180700-
SOUTHERN NEW JERSEY
  
CITY           SKY/WX    TMP DP  RH WIND       PRES   REMARKS
POMONA         FAIR      55  51  86 NW3       30.14R                  
6HR MIN TEMP:  55; 6HR MAX TEMP:  66;                                

WILDWOOD*      FAIR      55  52  89 CALM      30.14S                  
MILLVILLE      FAIR      51  48  89 CALM      30.14S                  
MOUNT HOLLY    FAIR      53  52  96 CALM      30.15S                  
TRENTON        FAIR      56  46  69 N5        30.16R                  
6HR MIN TEMP:  56; 6HR MAX TEMP:  68;                                


$$
NJZ001>014-180700-
NORTHERN NEW JERSEY
  
CITY           SKY/WX    TMP DP  RH WIND       PRES   REMARKS
SUSSEX         FAIR      48  45  89 CALM      30.20R                  
ANDOVER*         N/A     50  48  93 CALM      30.19S                  
MORRISTOWN     FAIR      46  46 100 CALM      30.18R                  
NEWARK         FAIR      59  45  59 N7        30.17R                  
TETERBORO      FAIR      59  48  67 N5        30.16R                  
CALDWELL       FAIR      55  48  77 CALM      30.18R                  
SOMERVILLE     FAIR      52  50  93 NW5       30.16R                  
ALLAIRE*       FAIR      55  51  86 CALM      30.16S                  
TOMS RIVER*    FAIR      51  32  48 CALM      30.16R                  

$$
PAZ043-044-047-054-055-060>062-066>071-180700-
EASTERN PENNSYLVANIA
  
CITY           SKY/WX    TMP DP  RH WIND       PRES   REMARKS
PHILADELPHIA   FAIR      61  53  75 CALM      30.16S                  
6HR MIN TEMP:  60; 6HR MAX TEMP:  73;                                

NORTH PHILA    FAIR      59  49  69 CALM      30.17R                  
BLUE BELL*     FAIR      51  50  98 CALM      30.17R                  
DOYLESTOWN     FAIR      57  47  69 CALM      30.16R                  
QUAKERTOWN*    CLEAR     52  50  93 CALM      30.18R                  
PERKASIE*      FAIR      50  50 100 CALM      30.18S                  
POTTSTOWN      FAIR      51  50  96 CALM      30.18R                  
LANCASTER      FAIR      60  47  61 E7        30.16R                  
COATESVILLE    FAIR      55  52  88 N3        30.18R                  
WEST CHESTER   FAIR      55  50  82 CALM      30.17R                  
READING        FAIR      57  50  77 N3        30.16R                  
6HR MIN TEMP:  57; 6HR MAX TEMP:  69;                                

ALLENTOWN      FAIR      56  47  71 CALM      30.17S                  
6HR MIN TEMP:  54; 6HR MAX TEMP:  69;                                

QN CITY/ALNTWN FAIR      55  52  88 CALM      30.19R                  
MOUNT POCONO   FAIR      49  44  83 N6        30.20F                  
6HR MIN TEMP:  47; 6HR MAX TEMP:  59;                                

HAZLETON       FAIR      46  43  87 CALM      30.24R                  
LEHIGHTON      FAIR      45  45 100 CALM      30.20S                  
WILKES BARRE   FAIR      51  47  86 SE6       30.20S                  

$$
DEZALL-MDZ008-012-015-019-020-180700-
DELAWARE AND EASTERN MARYLAND
  
CITY           SKY/WX    TMP DP  RH WIND       PRES   REMARKS
WILMINGTON     FAIR      58  55  90 N3        30.16R                  
6HR MIN TEMP:  58; 6HR MAX TEMP:  71;                                

CHESWOLD         N/A     54  52  94 CALM      30.14S                  
GEORGETOWN     FAIR      55  53  93 CALM      30.13S                  
6HR MIN TEMP:  55; 6HR MAX TEMP:  65;                                

EASTON         FAIR      58  54  88 CALM      30.17S                  
STEVENSVILLE   FAIR      59  55  88 CALM      30.14R                  
PATUXENT       FAIR      64  53  67 E5        30.12                   
OCEAN CITY     FAIR      68  53  58 NE9       30.12R                  
WALLOPS ISLAND FAIR      61  54  77 VRB6G16   30.11R                  
CAMBRIDGE      CLEAR     55  54  94 CALM      30.13S                  
SALISBURY      FAIR      56  52  86 CALM      30.12S                  

$$
PAZ001-021-NYZ056-072-MDZ011-DCZ001-180700-
OTHER NEARBY LOCATIONS
  
CITY           SKY/WX    TMP DP  RH WIND       PRES   REMARKS
HARRISBURG     FAIR      61  50  67 NW5       30.16R                  
WILLIAMSPORT   FAIR      54  51  90 W5        30.20R                  
BINGHAMTON     FAIR      50  44  80 NE5       30.23R                  
NEW YORK CITY  FAIR      62  53  72 CALM      30.19R                  
BALTIMORE      FAIR      59  57  93 CALM      30.13S                  
WASHINGTON DC  FAIR      67  59  75 E5        30.14R                  

$$